Flag for U.S.A. Weather past 2 weeks in Berkeley, California, U.S.A.

Now
68 °F

Sunny.


Feels Like: 68 °F
Forecast: 61 / 76 °F
Wind: 10 mph from Northwest

Location: Metro Oakland International Airport

Current Time: Jul 30, 2014 at 1:03:45 PM

Latest Report: Jul 30, 2014 at 11:53 AM


Visibility: 10 mi

Pressure: 30.01 "Hg

Humidity: 68%

Dew point: 57 °F

Location of BerkeleyLocation

Historic Weather in Berkeley — Graph

°F

Berkeley temperature yesterday

Maximum temperature yesterday: 75 °F (at 1:53 PM)
Minimum temperature yesterday: 61 °F (at 2:53 AM)
Average temperature yesterday: 66 °F

Past Weeks' High & Low Weather Summary

 TemperatureHumidityPressure
High90 °F (Jul 25, 1:53 PM)90% (Jul 16, 1:53 AM)30.15 "Hg (Jul 16, 1:53 AM)
Low60 °F (Jul 30, 12:53 AM)23% (Jul 25, 12:53 PM)29.83 "Hg (Jul 25, 3:53 AM)
Average67 °F71%29.98 "Hg
* Reported Jul 15 11:53 AM — Jul 30 11:53 AM, Berkeley, Weather by CustomWeather, © 2014

Note: Actual official high and low records may vary slightly from our data, if they occured in-between our weather recording intervals... More about our weather records

Advertising

Berkeley weather history for previous 24 hours

 ConditionsComfort  
Time TempWeatherWind HumidityBarometerVisibility
11:53 AM
Jul 30
68 °FSunny.10 mph68%30.01 "Hg10 mi
10:53 AM66 °FPassing clouds.7 mph70%30.02 "Hg10 mi
9:53 AM63 °FLow clouds.8 mph78%30.02 "Hg10 mi
8:53 AM63 °FLow clouds.5 mph78%30.01 "Hg10 mi
7:53 AM61 °FLow clouds.6 mph83%30.01 "Hg10 mi
6:53 AM61 °FLow clouds.8 mph83%30.00 "Hg10 mi
5:53 AM61 °FLow clouds.8 mph83%29.99 "Hg10 mi
4:53 AM60 °FLow clouds.7 mph86%29.98 "Hg10 mi
3:53 AM60 °FLow clouds.7 mph86%29.98 "Hg10 mi
2:53 AM60 °FLow clouds.10 mph86%29.98 "Hg10 mi
1:53 AM60 °FLow clouds.7 mph86%29.98 "Hg10 mi
12:53 AM60 °FPassing clouds.12 mph86%29.99 "Hg10 mi
11:53 PM
Jul 29
61 °FPassing clouds.13 mph83%30.00 "Hg10 mi
10:53 PM61 °FClear.10 mph83%30.00 "Hg10 mi
9:53 PM63 °FPassing clouds.9 mph78%30.01 "Hg10 mi
8:53 PM64 °FPassing clouds.13 mph75%29.99 "Hg10 mi
7:53 PM65 °FScattered clouds.14 mph73%29.98 "Hg10 mi
6:53 PM68 °FPassing clouds.15 mph65%29.98 "Hg10 mi
5:53 PM71 °FPassing clouds.14 mph61%29.98 "Hg10 mi
4:53 PM71 °FPassing clouds.17 mph59%29.99 "Hg10 mi
3:53 PM73 °FPassing clouds.14 mph57%30.00 "Hg10 mi
2:53 PM73 °FPassing clouds.17 mph55%30.02 "Hg10 mi
1:53 PM75 °FPassing clouds.14 mph50%30.03 "Hg10 mi
Weather by CustomWeather, © 2014

See weather overviewHow to use our weather pages